TimeCST,TemperatureF,Dew PointF,Humidity,Sea Level PressureIn,VisibilityMPH,Wind Direction,Wind SpeedMPH,Gust SpeedMPH,PrecipitationIn,Events,Conditions,WindDirDegrees,DateUTC
12:56 AM,15.1,10.9,84,30.16,-9999.0,NNW,4.6,-,0.01,,Unknown,330,2013-01-05 06:56:00
1:56 AM,18.0,12.9,81,30.16,-9999.0,North,3.5,-,N/A,,Unknown,360,2013-01-05 07:56:00
2:56 AM,21.9,15.1,75,30.15,-9999.0,NNE,3.5,-,N/A,,Unknown,20,2013-01-05 08:56:00
3:56 AM,30.0,19.0,64,30.13,-9999.0,SE,6.9,-,N/A,,Unknown,140,2013-01-05 09:56:00
4:56 AM,32.0,21.0,64,30.11,-9999.0,SSE,9.2,-,N/A,,Unknown,160,2013-01-05 10:56:00
5:56 AM,30.9,21.0,67,30.11,-9999.0,Variable,4.6,-,N/A,,Unknown,0,2013-01-05 11:56:00
6:56 AM,28.0,21.9,78,30.09,-9999.0,NE,9.2,-,N/A,,Unknown,40,2013-01-05 12:56:00
7:56 AM,28.0,23.0,81,30.07,-9999.0,NE,10.4,18.4,N/A,,Unknown,50,2013-01-05 13:56:00
8:56 AM,28.0,21.9,78,30.06,-9999.0,NE,6.9,-,N/A,,Unknown,40,2013-01-05 14:56:00
9:56 AM,28.9,23.0,78,30.06,-9999.0,NE,8.1,-,N/A,,Unknown,50,2013-01-05 15:56:00
10:56 AM,30.0,24.1,79,30.04,-9999.0,NE,8.1,-,N/A,,Unknown,50,2013-01-05 16:56:00
11:56 AM,32.0,23.0,69,30.00,-9999.0,SE,5.8,-,N/A,,Unknown,130,2013-01-05 17:56:00
12:56 PM,32.0,21.9,66,29.96,-9999.0,East,8.1,-,N/A,,Unknown,80,2013-01-05 18:56:00
1:56 PM,32.0,21.9,66,29.94,-9999.0,ENE,9.2,-,N/A,,Unknown,70,2013-01-05 19:56:00
2:56 PM,30.9,21.9,69,29.92,-9999.0,NNE,4.6,-,N/A,,Unknown,20,2013-01-05 20:56:00
3:56 PM,30.0,19.9,66,29.92,-9999.0,NNE,4.6,-,N/A,,Unknown,20,2013-01-05 21:56:00
4:56 PM,28.9,18.0,64,29.91,-9999.0,North,4.6,-,N/A,,Unknown,10,2013-01-05 22:56:00
5:56 PM,28.9,18.0,64,29.92,-9999.0,North,8.1,-,N/A,,Unknown,350,2013-01-05 23:56:00
6:56 PM,28.0,16.0,61,29.94,-9999.0,North,8.1,18.4,N/A,,Unknown,10,2013-01-06 00:56:00
7:56 PM,28.0,16.0,61,29.94,-9999.0,NNW,8.1,-,N/A,,Unknown,340,2013-01-06 01:56:00
8:56 PM,28.0,17.1,63,29.93,-9999.0,NNW,8.1,16.1,N/A,,Unknown,340,2013-01-06 02:56:00
9:56 PM,28.0,18.0,66,29.93,-9999.0,North,9.2,20.7,N/A,,Unknown,350,2013-01-06 03:56:00
10:56 PM,28.0,18.0,66,29.94,-9999.0,North,10.4,20.7,N/A,,Unknown,350,2013-01-06 04:56:00
11:56 PM,27.0,18.0,69,29.94,-9999.0,NNW,12.7,19.6,N/A,,Unknown,330,2013-01-06 05:56:00